Red Bluff, CA

4:55 PM PST on November 17, 2019 (GMT -0800)
Red Bluff Municipal

Weather History for KRBL - September, 2019

Change the Weather History Date:

Sunday, September 8, 2019

  Actual Average Record
Temperature  
Mean Temperature 70 °F -  
Max Temperature 86 °F 93 °F 112 °F (1944)
Min Temperature 55 °F 61 °F 52 °F (1937)
Cooling Degree Days 6    
Growing Degree Days 20 (Base 50)    
Moisture  
Dew Point 51 °F    
Average Humidity 51    
Maximum Humidity 87    
Minimum Humidity 22    
Precipitation  
Precipitation 0.00 in - - ()
Sea Level Pressure  
Sea Level Pressure 29.94 in    
Wind  
Wind Speed 5 mph (North)    
Max Wind Speed 15 mph    
Max Gust Speed 18 mph    
Visibility 10 miles    
Events      
Averages and records for this station are not official NWS values.
T = Trace of Precipitation, MM = Missing Value Source: NWS Daily Summary

Daily Weather History Graph

Daily Weather History Graph

Search for Another Location

Airport or City:

Astronomy

Sep. 08, 2019 Rise Set
Actual Time 6:43 AM PDT 7:29 PM PDT
Civil Twilight 6:15 AM PDT 7:56 PM PDT
Nautical Twilight 5:43 AM PDT 8:29 PM PDT
Astronomical Twilight 5:09 AM PDT 9:02 PM PDT
Moon 4:43 PM PDT (9/8) 1:26 AM PDT (9/8)
Length of Visible Light 13h 41m
Length of Day
12h 46m
Waxing Gibbous, 76% of the Moon is Illuminated
Sep 8
Waxing Gibbous
Sep 13
Full
Sep 21
Last Quarter
Sep 28
New
Oct 5
First Quarter

Hourly Weather History & Observations

Time (PDT) Temp. Dew Point Humidity Pressure Visibility Wind Dir Wind Speed Gust Speed Precip Events Conditions
12:54 AM 63.0 °F 54.0 °F 72% 29.94 in 10.0 mi South 5.8 mph - N/A   Clear
1:54 AM 63.0 °F 54.0 °F 72% 29.95 in 10.0 mi SW 4.6 mph - N/A   Clear
2:54 AM 63.0 °F 54.0 °F 72% 29.96 in 10.0 mi Calm Calm - N/A   Clear
3:54 AM 63.0 °F 55.0 °F 75% 29.96 in 10.0 mi East 3.5 mph - N/A   Clear
4:54 AM 57.9 °F 53.1 °F 84% 29.97 in 10.0 mi NW 3.5 mph - N/A   Clear
5:54 AM 57.0 °F 52.0 °F 83% 29.98 in 10.0 mi WNW 4.6 mph - N/A   Clear
6:54 AM 55.9 °F 52.0 °F 87% 29.99 in 10.0 mi NW 3.5 mph - N/A   Clear
7:54 AM 61.0 °F 54.0 °F 78% 29.99 in 10.0 mi NNW 3.5 mph - N/A   Clear
8:54 AM 66.9 °F 55.0 °F 66% 29.99 in 10.0 mi North 4.6 mph - N/A   Clear
9:54 AM 72.0 °F 53.1 °F 51% 29.98 in 10.0 mi North 9.2 mph - N/A   Clear
10:54 AM 75.9 °F 51.1 °F 42% 29.97 in 10.0 mi ENE 4.6 mph - N/A   Clear
11:54 AM 77.0 °F 50.0 °F 39% 29.96 in 10.0 mi East 4.6 mph - N/A   Clear
12:54 PM 82.0 °F 48.0 °F 30% 29.94 in 10.0 mi NNE 4.6 mph - N/A   Clear
1:54 PM 82.9 °F 48.0 °F 29% 29.92 in 10.0 mi Calm Calm - N/A   Clear
2:54 PM 82.9 °F 48.0 °F 29% 29.90 in 10.0 mi Variable 3.5 mph - N/A   Clear
3:54 PM 84.0 °F 48.0 °F 28% 29.88 in 10.0 mi SE 9.2 mph - N/A   Clear
4:54 PM 84.0 °F 51.1 °F 32% 29.88 in 10.0 mi SSE 15.0 mph - N/A   Clear
5:54 PM 82.9 °F 51.1 °F 33% 29.87 in 10.0 mi South 11.5 mph - N/A   Clear
6:54 PM 81.0 °F 52.0 °F 36% 29.87 in 10.0 mi South 10.4 mph - N/A   Clear
7:54 PM 77.0 °F 55.0 °F 47% 29.89 in 10.0 mi SE 3.5 mph - N/A   Clear
8:54 PM 75.9 °F 53.1 °F 45% 29.91 in 10.0 mi Calm Calm - N/A   Clear
9:54 PM 71.1 °F 48.9 °F 45% 29.91 in 10.0 mi North 5.8 mph - N/A   Clear
10:54 PM 72.0 °F 46.0 °F 40% 29.91 in 10.0 mi NW 6.9 mph - N/A   Clear
11:54 PM 73.0 °F 45.0 °F 37% 29.91 in 10.0 mi WNW 11.5 mph 18.4 mph N/A   Clear